period_start,C,m1,H,J0,J1,J2,J3,J4,J5,JA,JB,JC,JD,JJ,JK,JN,#
2017-11-04 00:04:29,0.02,3.04,0.00,16.98,20.39,23.46,14.33,47.27,1023.94,2054.00,2425.10,2408.89,2724.03,599.68,612.62,52.94,0000 0000 0000 0000 000000
2017-11-04 00:09:31,0.03,3.04,0.00,16.97,20.39,23.45,14.29,47.27,1023.94,2054.00,2425.00,2408.34,2724.00,599.60,612.39,52.99,0000 0000 0000 0000 000000
2017-11-04 00:14:32,0.01,3.04,0.00,16.98,20.38,23.46,14.36,47.28,1023.91,2054.01,2424.73,2408.03,2723.96,600.12,612.87,53.04,0000 0000 0000 0000 000000
2017-11-04 00:19:33,0.03,3.05,0.00,16.97,20.38,23.49,14.28,47.35,1023.85,2054.01,2424.06,2408.00,2723.33,600.06,612.63,53.09,0000 0000 0000 0000 000000
2017-11-04 00:24:34,0.00,3.05,0.00,16.97,20.37,23.46,14.40,47.44,1023.83,2054.01,2423.99,2407.97,2723.01,600.34,613.06,53.14,0000 0000 0000 0000 000000
2017-11-04 00:29:35,0.04,3.05,0.00,16.98,20.37,23.47,14.30,47.31,1023.86,2054.01,2423.42,2407.51,2722.98,600.10,612.84,53.19,0000 0000 0000 0000 000000
2017-11-04 00:34:37,0.03,3.05,0.00,16.97,20.37,23.50,14.39,47.46,1023.75,2054.00,2423.00,2407.02,2722.35,600.04,612.72,53.24,0000 0000 0000 0000 000000
2017-11-04 00:39:38,0.02,3.05,0.00,16.99,20.37,23.44,14.31,47.40,1023.71,2054.01,2422.53,2406.98,2722.01,599.92,612.59,53.29,0000 0000 0000 0000 000000
2017-11-04 00:44:39,0.02,3.05,0.00,16.97,20.37,23.49,14.37,47.39,1023.60,2054.01,2422.03,2406.77,2721.98,600.03,612.73,53.34,0000 0000 0000 0000 000000
2017-11-04 00:49:41,0.05,3.05,0.00,16.99,20.37,23.46,14.33,47.33,1023.63,2054.01,2421.70,2406.08,2721.40,599.86,612.44,53.39,0000 0000 0000 0000 000000
2017-11-04 00:54:42,0.01,3.06,0.00,17.00,20.37,23.47,14.25,47.31,1023.57,2054.03,2421.03,2406.00,2721.01,599.79,612.38,53.44,0000 0000 0000 0000 000000
2017-11-04 00:59:44,0.03,3.06,0.00,17.02,20.37,23.49,14.35,47.28,1023.49,2054.02,2420.77,2405.79,2720.85,600.27,612.62,53.49,0000 0000 0000 0000 000000
2017-11-04 01:04:45,0.05,3.06,0.00,17.01,20.37,23.47,14.38,47.35,1023.47,2054.01,2420.06,2405.09,2720.10,599.94,612.41,53.54,0000 0000 0000 0000 000000
2017-11-04 01:09:46,0.01,3.06,0.00,17.01,20.37,23.45,14.30,47.33,1023.46,2054.01,2419.74,2405.00,2719.97,599.68,612.04,53.59,0000 0000 0000 0000 000000
2017-11-04 01:14:48,0.05,3.06,0.00,17.04,20.37,23.45,14.35,47.35,1023.45,2054.01,2419.04,2404.72,2719.44,600.06,612.44,53.64,0000 0000 0000 0000 000000
2017-11-04 01:19:49,0.03,3.06,0.00,17.04,20.37,23.47,14.27,47.31,1023.45,2054.00,2418.68,2404.06,2719.01,599.89,612.23,53.69,0000 0000 0000 0000 000000
2017-11-04 01:24:51,0.01,3.07,0.00,17.04,20.37,23.50,14.35,47.22,1023.45,2054.02,2418.03,2403.99,2718.80,600.01,612.36,53.74,0000 0000 0000 0000 000000
2017-11-04 01:29:52,0.03,3.07,0.00,17.06,20.37,23.46,14.34,47.35,1023.45,2054.01,2417.81,2403.71,2718.08,600.24,612.55,53.79,0000 0000 0000 0000 000000
2017-11-04 01:34:54,0.04,3.07,0.00,17.04,20.37,23.44,14.34,47.25,1023.42,2054.01,2417.05,2403.05,2717.98,599.78,612.02,53.85,0000 0000 0000 0000 000000
2017-11-04 01:39:55,0.01,3.07,0.00,17.04,20.37,23.43,14.38,47.30,1023.36,2054.01,2416.91,2402.99,2717.40,600.08,612.28,53.90,0000 0000 0000 0000 000000
2017-11-04 01:44:56,0.04,3.07,0.00,17.05,20.37,23.47,14.35,47.31,1023.30,2054.01,2416.10,2402.69,2717.01,600.04,612.30,53.95,0000 0000 0000 0000 000000
2017-11-04 01:49:58,0.02,3.07,0.00,17.06,20.39,23.47,14.32,47.38,1023.22,2054.00,2415.97,2402.07,2716.86,600.07,612.30,54.00,0000 0000 0000 0000 000000
2017-11-04 01:54:59,0.04,3.08,0.00,17.10,20.39,23.45,14.33,47.33,1023.13,2054.01,2415.29,2401.99,2716.12,600.20,612.25,54.05,0000 0000 0000 0000 000000
2017-11-04 02:00:00,0.03,3.08,0.00,17.09,20.39,23.54,14.35,47.35,1023.14,2054.00,2414.95,2401.57,2715.98,600.30,612.42,54.10,0000 0000 0000 0000 000000
2017-11-04 02:05:02,0.05,3.08,0.00,17.11,20.40,23.55,14.34,47.30,1023.13,2054.01,2414.28,2401.04,2715.55,600.44,612.45,54.15,0000 0000 0000 0000 000000
2017-11-04 02:10:03,0.01,3.08,0.00,17.13,20.42,23.48,14.25,47.38,1023.09,2054.00,2413.97,2400.99,2715.01,599.77,611.75,54.20,0000 0000 0000 0000 000000
2017-11-04 02:15:04,0.03,3.08,0.00,17.13,20.42,23.49,14.33,47.45,1023.00,2054.00,2413.28,2400.76,2714.96,600.10,612.12,54.25,0000 0000 0000 0000 000000
2017-11-04 02:20:06,0.04,3.09,0.00,17.13,20.43,23.47,14.32,47.33,1023.01,2054.00,2413.01,2400.08,2714.20,600.29,612.26,54.30,0000 0000 0000 0000 000000
2017-11-04 02:25:06,0.01,3.09,0.00,17.13,20.44,23.51,14.35,47.31,1023.01,2054.00,2412.78,2400.00,2714.00,599.91,611.88,54.35,0000 0000 0000 0000 000000
2017-11-04 02:30:08,0.04,3.09,0.00,17.15,20.45,23.56,14.29,47.26,1022.98,2054.00,2412.04,2399.81,2713.62,599.87,611.64,54.40,0000 0000 0000 0000 000000
2017-11-04 02:35:09,0.04,3.09,0.00,17.16,20.47,23.53,14.35,47.38,1022.97,2054.00,2411.80,2399.11,2713.04,599.75,611.63,54.45,0000 0000 0000 0000 000000
2017-11-04 02:40:11,0.01,3.09,0.00,17.20,20.47,23.62,14.29,47.31,1022.97,2053.99,2411.07,2399.00,2712.99,599.57,611.33,54.50,0000 0000 0000 0000 000000
2017-11-04 02:45:12,0.04,3.09,0.00,17.21,20.48,23.59,14.32,47.33,1022.96,2053.99,2410.80,2398.69,2712.41,599.87,611.59,54.55,0000 0000 0000 0000 000000
2017-11-04 02:50:13,0.03,3.10,0.00,17.22,20.49,23.56,14.21,47.20,1022.96,2053.97,2410.06,2398.05,2712.00,599.33,611.11,54.60,0000 0000 0000 0000 000000
2017-11-04 02:55:15,0.02,3.10,0.00,17.23,20.49,23.57,14.34,47.40,1022.96,2053.96,2409.82,2397.98,2711.74,600.09,611.85,54.65,0000 0000 0000 0000 000000
2017-11-04 03:00:16,0.05,3.10,0.00,17.26,20.50,23.63,14.33,47.33,1022.96,2053.94,2409.09,2397.51,2711.04,600.02,611.60,54.70,0000 0000 0000 0000 000000
2017-11-04 03:05:17,0.01,3.10,0.00,17.27,20.52,23.56,14.26,47.28,1022.96,2053.91,2408.96,2397.02,2710.90,599.78,611.28,54.76,0000 0000 0000 0000 000000
2017-11-04 03:10:19,0.04,3.10,0.00,17.28,20.52,23.57,14.34,47.26,1022.96,2053.91,2408.24,2396.98,2710.13,600.15,611.78,54.81,0000 0000 0000 0000 000000
2017-11-04 03:15:20,-0.00,3.10,0.00,17.29,20.52,23.58,14.24,47.21,1022.96,2053.63,2407.88,2396.36,2709.97,599.77,611.21,54.86,0000 0000 0000 0000 000000
2017-11-04 03:20:22,0.04,3.10,0.00,17.29,20.54,23.60,14.27,47.15,1022.96,2053.54,2407.10,2396.01,2709.35,599.82,611.37,54.91,0000 0000 0000 0000 000000
2017-11-04 03:25:23,0.00,3.10,0.00,17.29,20.54,23.59,14.33,47.16,1022.96,2053.47,2406.87,2395.90,2709.01,600.19,611.81,54.96,0000 0000 0000 0000 000000
2017-11-04 03:30:24,0.06,3.11,0.00,17.32,20.54,23.66,14.32,47.16,1022.95,2053.30,2406.09,2395.17,2708.72,600.30,611.68,55.01,0000 0000 0000 0000 000000
2017-11-04 03:35:26,0.00,3.11,0.00,17.33,20.56,23.66,14.32,47.22,1022.96,2053.16,2405.89,2395.00,2708.05,599.92,611.42,55.06,0000 0000 0000 0000 000000
2017-11-04 03:40:27,0.02,3.11,0.00,17.36,20.57,23.70,14.38,47.13,1022.96,2053.05,2405.11,2394.83,2707.94,600.40,611.90,55.11,0000 0000 0000 0000 000000
2017-11-04 03:45:28,0.05,3.11,0.00,17.38,20.58,23.67,14.30,47.13,1022.96,2053.04,2404.99,2394.10,2707.23,600.03,611.47,55.16,0000 0000 0000 0000 000000
2017-11-04 03:50:30,0.02,3.11,0.00,17.40,20.59,23.64,14.30,47.14,1022.95,2053.05,2404.31,2394.00,2706.99,599.94,611.24,55.21,0000 0000 0000 0000 000000
2017-11-04 03:55:31,0.05,3.11,0.00,17.43,20.61,23.69,14.35,47.08,1022.96,2053.01,2403.90,2393.46,2706.28,600.18,611.45,55.26,0000 0000 0000 0000 000000
2017-11-04 04:00:32,0.03,3.12,0.00,17.44,20.63,23.70,14.35,47.11,1022.96,2053.00,2403.11,2393.01,2705.99,600.39,611.65,55.31,0000 0000 0000 0000 000000
2017-11-04 04:05:33,0.04,3.12,0.00,17.44,20.65,23.72,14.35,47.18,1022.96,2053.00,2402.79,2392.79,2705.32,600.11,611.33,55.36,0000 0000 0000 0000 000000
2017-11-04 04:10:34,0.04,3.12,0.00,17.45,20.67,23.76,14.34,47.27,1022.96,2052.98,2402.04,2392.06,2705.00,600.16,611.36,55.41,0000 0000 0000 0000 000000
2017-11-04 04:15:35,0.04,3.12,0.00,17.44,20.68,23.76,14.30,47.15,1022.96,2052.98,2401.49,2391.96,2704.36,599.83,611.10,55.46,0000 0000 0000 0000 000000
2017-11-04 04:20:37,0.03,3.12,0.00,17.45,20.69,23.80,14.34,47.17,1022.96,2052.98,2401.01,2391.37,2704.00,599.83,611.03,55.51,0000 0000 0000 0000 000000
2017-11-04 04:25:38,0.03,3.13,0.00,17.46,20.71,23.78,14.34,47.14,1022.96,2052.95,2400.62,2391.02,2703.60,600.06,611.08,55.56,0000 0000 0000 0000 000000
2017-11-04 04:30:40,0.02,3.13,0.00,17.46,20.72,23.79,14.27,47.10,1022.96,2052.95,2400.01,2390.91,2703.01,599.79,610.86,55.61,0000 0000 0000 0000 000000
2017-11-04 04:35:41,0.04,3.13,0.00,17.48,20.72,23.82,14.25,47.10,1022.94,2052.92,2399.75,2390.20,2702.94,599.97,611.12,55.66,0000 0000 0000 0000 000000
2017-11-04 04:40:42,0.03,3.13,0.00,17.47,20.73,23.83,14.33,47.21,1022.94,2052.91,2399.03,2390.00,2702.17,599.92,611.05,55.71,0000 0000 0000 0000 000000
2017-11-04 04:45:44,0.02,3.13,0.00,17.45,20.74,23.84,14.30,47.13,1022.91,2052.81,2398.50,2389.84,2701.99,599.71,610.85,55.77,0000 0000 0000 0000 000000
2017-11-04 04:50:45,0.01,3.13,0.00,17.47,20.74,23.87,14.28,47.10,1022.84,2052.58,2398.00,2389.14,2701.46,599.49,610.55,55.82,0000 0000 0000 0000 000000
2017-11-04 04:55:46,0.02,3.13,0.00,17.47,20.74,23.86,14.36,47.02,1022.84,2052.37,2397.37,2388.99,2701.00,600.36,611.46,55.87,0000 0000 0000 0000 000000
2017-11-04 05:00:48,0.01,3.13,0.00,17.47,20.74,23.88,14.29,47.18,1022.82,2052.23,2397.02,2388.77,2700.77,599.59,610.71,55.92,0000 0000 0000 0000 000000
2017-11-04 05:05:49,0.05,3.14,0.00,17.47,20.74,23.91,14.26,46.98,1022.70,2052.24,2396.50,2388.09,2700.06,600.02,611.01,55.97,0000 0000 0000 0000 000000
2017-11-04 05:10:51,0.02,3.14,0.00,17.44,20.75,23.86,14.25,47.02,1022.61,2052.32,2396.01,2387.99,2699.99,599.67,610.67,56.02,0000 0000 0000 0000 000000
2017-11-04 05:15:52,0.02,3.14,0.00,17.45,20.75,23.84,14.24,47.08,1022.63,2052.13,2395.60,2387.76,2699.43,599.64,610.69,56.07,0000 0000 0000 0000 000000
2017-11-04 05:20:53,0.05,3.14,0.00,17.46,20.75,23.88,14.32,47.09,1022.55,2052.17,2395.02,2387.11,2699.01,600.25,611.24,56.12,0000 0000 0000 0000 000000
2017-11-04 05:25:54,-0.00,3.14,0.00,17.45,20.75,23.89,14.26,47.08,1022.49,2052.10,2394.78,2387.00,2698.88,599.79,610.62,56.17,0000 0000 0000 0000 000000
2017-11-04 05:30:56,0.03,3.14,0.00,17.45,20.75,23.89,14.29,47.03,1022.48,2052.04,2394.14,2386.92,2698.14,600.15,611.07,56.22,0000 0000 0000 0000 000000
2017-11-04 05:35:57,0.03,3.15,0.00,17.46,20.75,23.89,14.22,47.07,1022.48,2052.06,2394.00,2386.31,2698.00,599.64,610.50,56.27,0000 0000 0000 0000 000000
2017-11-04 05:40:58,0.03,3.15,0.00,17.46,20.75,23.89,14.38,47.13,1022.48,2052.08,2393.36,2386.02,2697.80,600.03,610.76,56.32,0000 0000 0000 0000 000000
2017-11-04 05:45:59,0.02,3.15,0.00,17.45,20.74,23.89,14.33,47.00,1022.47,2052.06,2392.98,2385.97,2697.06,600.14,611.08,56.37,0000 0000 0000 0000 000000
2017-11-04 05:51:00,0.06,3.15,0.00,17.44,20.74,23.92,14.33,47.00,1022.47,2052.08,2392.18,2385.34,2696.99,600.14,611.07,56.42,0000 0000 0000 0000 000000
2017-11-04 05:56:02,0.04,3.15,0.00,17.44,20.74,23.88,14.31,47.02,1022.48,2052.09,2391.60,2385.00,2696.42,600.28,611.32,56.47,0000 0000 0000 0000 000000
2017-11-04 06:01:03,0.02,3.15,0.00,17.44,20.74,23.90,14.30,46.99,1022.48,2052.08,2390.99,2384.79,2696.00,600.06,610.96,56.52,0000 0000 0000 0000 000000
2017-11-04 06:06:05,0.05,3.16,0.00,17.44,20.74,23.87,14.24,46.97,1022.48,2052.08,2390.36,2384.09,2695.77,600.02,611.07,56.57,0000 0000 0000 0000 000000
2017-11-04 06:11:06,0.02,3.16,0.00,17.42,20.74,23.87,14.24,47.03,1022.48,2052.06,2389.98,2384.00,2695.05,600.08,611.05,56.62,0000 0000 0000 0000 000000
2017-11-04 06:16:07,0.03,3.16,0.00,17.41,20.74,23.89,14.32,46.98,1022.48,2052.10,2389.27,2383.87,2694.98,600.20,611.21,56.67,0000 0000 0000 0000 000000
2017-11-04 06:21:08,0.04,3.16,0.00,17.39,20.74,23.92,14.32,47.10,1022.48,2052.09,2389.00,2383.15,2694.54,600.08,611.28,56.73,0000 0000 0000 0000 000000
2017-11-04 06:26:10,0.01,3.16,0.00,17.41,20.74,23.94,14.29,47.18,1022.48,2052.13,2388.92,2383.00,2694.03,599.69,610.83,56.78,0000 0000 0000 0000 000000
2017-11-04 06:31:11,0.02,3.16,0.00,17.40,20.74,23.91,14.32,47.16,1022.48,2052.09,2388.23,2382.98,2693.96,600.04,611.08,56.83,0000 0000 0000 0000 000000
2017-11-04 06:36:12,0.04,3.17,0.00,17.40,20.73,23.87,14.31,47.16,1022.48,2052.07,2387.96,2382.38,2693.30,599.98,610.97,56.88,0000 0000 0000 0000 000000
2017-11-04 06:41:13,0.03,3.17,0.00,17.40,20.73,23.89,14.33,47.28,1022.48,2052.05,2387.17,2382.00,2693.00,600.06,611.03,56.93,0000 0000 0000 0000 000000
2017-11-04 06:46:14,0.01,3.17,0.00,17.38,20.73,23.91,14.30,47.16,1022.49,2052.05,2386.92,2381.97,2692.76,600.12,611.32,56.98,0000 0000 0000 0000 000000
2017-11-04 06:51:16,0.06,3.17,0.00,17.37,20.73,23.86,14.29,47.28,1022.48,2052.03,2386.11,2381.35,2692.08,599.79,610.87,57.03,0000 0000 0000 0000 000000
2017-11-04 06:56:17,0.00,3.17,0.00,17.38,20.72,23.88,14.35,47.23,1022.48,2052.04,2385.96,2381.01,2691.98,600.23,611.38,57.08,0000 0000 0000 0000 000000
2017-11-04 07:01:18,0.04,3.18,0.00,17.36,20.72,23.88,14.31,47.18,1022.48,2052.06,2385.23,2380.99,2691.56,599.71,610.82,57.13,0000 0000 0000 0000 000000
2017-11-04 07:06:19,0.04,3.18,0.00,17.33,20.72,23.88,14.28,47.26,1022.48,2052.08,2384.98,2380.54,2691.02,600.05,611.09,57.18,0000 0000 0000 0000 000000
2017-11-04 07:11:21,0.03,3.18,0.00,17.34,20.72,23.83,14.28,47.28,1022.48,2052.05,2384.32,2380.05,2690.95,599.91,611.06,57.23,0000 0000 0000 0000 000000
2017-11-04 07:16:22,0.03,3.18,0.00,17.33,20.72,23.82,14.36,47.37,1022.48,2052.10,2383.92,2379.99,2690.28,600.05,611.25,57.28,0000 0000 0000 0000 000000
2017-11-04 07:21:23,0.05,3.18,0.00,17.32,20.72,23.87,14.29,47.34,1022.47,2052.10,2383.20,2379.43,2690.00,599.66,610.84,57.33,0000 0000 0000 0000 000000
2017-11-04 07:26:24,0.01,3.18,0.00,17.32,20.71,23.85,14.28,47.20,1022.44,2052.14,2382.88,2379.06,2689.85,599.81,610.92,57.38,0000 0000 0000 0000 000000
2017-11-04 07:31:26,0.04,3.19,0.00,17.33,20.70,23.87,14.29,47.27,1022.28,2052.22,2382.10,2378.99,2689.12,599.76,610.82,57.43,0000 0000 0000 0000 000000
2017-11-04 07:36:27,0.04,3.19,0.00,17.31,20.69,23.87,14.28,47.39,1022.18,2052.30,2381.77,2378.53,2688.99,600.24,611.27,57.48,0000 0000 0000 0000 000000
2017-11-04 07:41:28,0.05,3.19,0.00,17.32,20.69,23.88,14.32,47.14,1022.26,2052.35,2381.04,2378.03,2688.71,600.06,611.11,57.53,0000 0000 0000 0000 000000
2017-11-04 07:46:29,0.06,3.19,0.00,17.30,20.69,23.87,14.32,47.13,1022.35,2052.63,2380.76,2377.99,2688.04,599.96,611.10,57.58,0000 0000 0000 0000 000000
2017-11-04 07:51:31,0.03,3.20,0.00,17.30,20.69,23.87,14.25,47.17,1022.25,2052.70,2380.04,2377.56,2687.99,600.02,611.12,57.64,0000 0000 0000 0000 000000
2017-11-04 07:56:32,0.07,3.20,0.00,17.32,20.68,23.85,14.22,47.13,1022.20,2052.91,2379.65,2377.03,2687.47,599.60,610.70,57.69,0000 0000 0000 0000 000000
2017-11-04 08:01:33,0.01,3.20,0.00,17.31,20.68,23.85,14.26,47.14,1022.08,2052.92,2379.01,2376.98,2687.02,599.98,610.91,57.74,0000 0000 0000 0000 000000
2017-11-04 08:06:34,0.05,3.20,0.00,17.29,20.67,23.84,14.40,47.12,1022.02,2052.94,2378.41,2376.43,2686.98,600.16,610.91,57.79,0000 0000 0000 0000 000000
2017-11-04 08:11:36,0.02,3.21,0.00,17.30,20.67,23.81,14.29,47.08,1022.01,2052.97,2378.01,2376.02,2686.38,600.09,611.05,57.84,0000 0000 0000 0000 000000
2017-11-04 08:16:37,0.01,3.21,0.00,17.29,20.67,23.80,14.29,47.16,1022.00,2052.97,2377.71,2376.00,2686.02,599.92,610.87,57.89,0000 0000 0000 0000 000000
2017-11-04 08:21:39,0.04,3.21,0.00,17.28,20.67,23.80,14.29,47.13,1021.99,2052.97,2377.03,2375.65,2685.87,600.10,611.18,57.94,0000 0000 0000 0000 000000
2017-11-04 08:26:40,0.04,3.21,0.00,17.28,20.67,23.81,14.28,47.23,1021.99,2052.97,2376.62,2375.03,2685.19,599.94,610.86,57.99,0000 0000 0000 0000 000000
2017-11-04 08:31:41,0.01,3.21,0.00,17.27,20.67,23.80,14.29,47.23,1021.99,2052.98,2376.02,2374.99,2684.99,600.11,611.14,58.04,0000 0000 0000 0000 000000
2017-11-04 08:36:42,0.04,3.21,0.00,17.27,20.67,23.79,14.26,47.32,1021.99,2052.98,2375.78,2374.55,2684.52,599.76,610.79,58.09,0000 0000 0000 0000 000000
2017-11-04 08:41:43,0.04,3.22,0.00,17.25,20.67,23.77,14.35,47.43,1021.99,2052.98,2375.07,2374.04,2684.03,600.45,611.45,58.14,0000 0000 0000 0000 000000
2017-11-04 08:46:45,0.01,3.22,0.00,17.25,20.67,23.74,14.31,47.24,1021.99,2052.99,2374.89,2374.00,2683.99,600.41,611.25,58.19,0000 0000 0000 0000 000000
2017-11-04 08:51:46,0.04,3.22,0.00,17.26,20.67,23.75,14.32,47.30,1021.94,2052.98,2374.19,2373.85,2683.60,600.07,611.08,58.24,0000 0000 0000 0000 000000
2017-11-04 08:56:47,0.04,3.22,0.00,17.25,20.67,23.75,14.24,47.42,1021.91,2052.98,2373.90,2373.10,2683.03,599.73,610.80,58.29,0000 0000 0000 0000 000000
2017-11-04 09:01:48,0.02,3.22,0.00,17.27,20.67,23.75,14.27,47.40,1021.95,2052.98,2373.14,2372.99,2682.86,599.97,610.82,58.34,0000 0000 0000 0000 000000
2017-11-04 09:06:49,0.05,3.22,0.00,17.26,20.67,23.77,14.40,47.38,1021.97,2052.98,2372.83,2372.52,2682.09,600.42,611.57,58.39,0000 0000 0000 0000 000000
2017-11-04 09:11:51,0.02,3.23,0.00,17.25,20.67,23.75,14.30,47.32,1021.99,2052.97,2372.09,2372.03,2681.98,600.21,611.27,58.44,0000 0000 0000 0000 000000
2017-11-04 09:16:52,0.02,3.23,0.00,17.26,20.67,23.77,14.26,47.33,1021.99,2052.98,2371.89,2371.99,2681.45,599.85,610.88,58.49,0000 0000 0000 0000 000000
2017-11-04 09:21:53,0.05,3.23,0.00,17.25,20.67,23.74,14.30,47.41,1021.99,2052.97,2371.11,2371.56,2681.02,600.11,611.15,58.54,0000 0000 0000 0000 000000
2017-11-04 09:26:54,0.01,3.23,0.00,17.24,20.67,23.74,14.34,47.43,1021.92,2052.98,2370.96,2371.05,2680.93,600.17,611.15,58.59,0000 0000 0000 0000 000000
2017-11-04 09:31:55,0.04,3.23,0.00,17.24,20.67,23.80,14.25,47.45,1021.68,2052.98,2370.26,2371.00,2680.17,599.86,610.75,58.64,0000 0000 0000 0000 000000
2017-11-04 09:36:56,0.01,3.23,0.00,17.24,20.67,23.76,14.32,47.37,1021.56,2052.98,2369.99,2370.82,2680.00,600.08,610.88,58.70,0000 0000 0000 0000 000000
2017-11-04 09:41:58,0.05,3.24,0.00,17.24,20.67,23.76,14.29,47.43,1021.62,2052.98,2369.55,2370.10,2679.81,599.87,610.76,58.75,0000 0000 0000 0000 000000
2017-11-04 09:46:59,0.02,3.24,0.00,17.26,20.67,23.75,14.31,47.51,1021.64,2052.98,2369.01,2369.99,2679.06,600.04,610.85,58.80,0000 0000 0000 0000 000000
2017-11-04 09:52:00,0.04,3.24,0.00,17.25,20.67,23.76,14.26,47.48,1021.74,2052.98,2368.34,2369.67,2678.97,599.77,610.88,58.85,0000 0000 0000 0000 000000
2017-11-04 09:57:01,0.04,3.24,0.00,17.27,20.67,23.73,14.36,47.36,1021.64,2052.98,2368.00,2369.04,2678.24,600.12,610.99,58.90,0000 0000 0000 0000 000000
2017-11-04 10:02:02,0.02,3.24,0.00,17.27,20.67,23.77,14.25,47.41,1021.51,2052.98,2367.46,2369.00,2678.00,599.79,610.53,58.95,0000 0000 0000 0000 000000
2017-11-04 10:07:03,0.02,3.24,0.00,17.28,20.67,23.73,14.34,47.35,1021.51,2052.99,2367.02,2368.78,2677.76,600.21,610.87,59.00,0000 0000 0000 0000 000000
2017-11-04 10:12:04,0.04,3.25,0.00,17.27,20.67,23.73,14.30,47.42,1021.52,2052.97,2366.74,2368.06,2677.04,599.76,610.53,59.05,0000 0000 0000 0000 000000
2017-11-04 10:17:06,0.01,3.25,0.00,17.25,20.67,23.74,14.39,47.42,1021.53,2052.97,2366.03,2368.00,2676.97,600.25,611.02,59.10,0000 0000 0000 0000 000000
2017-11-04 10:22:07,0.05,3.25,0.00,17.24,20.67,23.76,14.30,47.48,1021.51,2052.98,2365.84,2367.65,2676.39,600.17,610.91,59.15,0000 0000 0000 0000 000000
2017-11-04 10:27:08,0.03,3.25,0.00,17.25,20.67,23.75,14.36,47.46,1021.50,2052.99,2365.07,2367.04,2676.00,600.35,611.09,59.20,0000 0000 0000 0000 000000
2017-11-04 10:32:10,0.00,3.25,0.00,17.26,20.67,23.74,14.32,47.48,1021.50,2052.99,2364.86,2367.00,2675.94,599.92,610.75,59.25,0000 0000 0000 0000 000000
2017-11-04 10:37:11,0.04,3.26,0.00,17.26,20.67,23.77,14.34,47.37,1021.50,2052.99,2364.10,2366.98,2675.28,600.17,610.91,59.30,0000 0000 0000 0000 000000
2017-11-04 10:42:13,0.03,3.26,0.00,17.26,20.67,23.74,14.38,47.50,1021.50,2052.98,2363.94,2366.47,2674.99,600.42,611.16,59.35,0000 0000 0000 0000 000000
2017-11-04 10:47:14,0.04,3.26,0.00,17.26,20.67,23.76,14.30,47.37,1021.51,2052.99,2363.18,2366.01,2674.78,600.03,610.81,59.40,0000 0000 0000 0000 000000
2017-11-04 10:52:15,0.01,3.26,0.00,17.25,20.67,23.72,14.31,47.33,1021.50,2052.98,2362.98,2366.00,2674.08,600.17,610.93,59.45,0000 0000 0000 0000 000000
2017-11-04 10:57:17,0.04,3.26,0.00,17.28,20.67,23.73,14.25,47.38,1021.51,2052.99,2362.41,2365.63,2673.99,599.71,610.48,59.50,0000 0000 0000 0000 000000
2017-11-04 11:02:18,0.02,3.26,0.00,17.27,20.67,23.80,14.31,47.31,1021.50,2052.99,2362.01,2365.05,2673.69,600.21,610.90,59.55,0000 0000 0000 0000 000000
2017-11-04 11:07:19,0.02,3.27,0.00,17.28,20.67,23.78,14.28,47.36,1021.50,2052.99,2361.60,2365.00,2673.08,600.03,610.69,59.61,0000 0000 0000 0000 000000
2017-11-04 11:12:21,0.02,3.27,0.00,17.28,20.67,23.76,14.34,47.37,1021.50,2052.99,2361.03,2364.82,2672.99,600.11,610.81,59.66,0000 0000 0000 0000 000000
2017-11-04 11:17:22,0.09,3.27,0.00,17.29,20.68,23.73,14.36,47.28,1021.50,2052.99,2360.43,2363.98,2672.34,600.22,610.84,59.71,0000 0000 0000 0000 000000
2017-11-04 11:22:23,0.18,3.28,0.00,17.29,20.69,23.73,14.35,47.37,1021.50,2052.99,2357.77,2362.41,2670.42,600.80,611.56,59.76,0000 0000 0000 0000 000000
2017-11-04 11:27:24,0.04,3.28,0.00,17.28,20.69,23.74,14.32,47.33,1021.50,2052.99,2356.73,2361.87,2669.80,600.28,610.98,59.81,0000 0000 0000 0000 000000
2017-11-04 11:32:26,0.09,3.29,0.00,17.27,20.69,23.77,14.32,47.48,1021.49,2052.97,2355.57,2360.98,2668.72,600.27,610.98,59.86,0000 0000 0000 0000 000000
2017-11-04 11:37:27,0.07,3.29,0.00,17.29,20.69,23.73,14.26,47.52,1021.38,2052.99,2354.42,2360.09,2667.99,599.73,610.48,59.91,0000 0000 0000 0000 000000
2017-11-04 11:42:29,0.08,3.29,0.00,17.30,20.69,23.74,14.31,47.42,1021.35,2052.98,2353.29,2359.55,2667.06,599.92,610.42,59.96,0000 0000 0000 0000 000000
2017-11-04 11:47:30,0.11,3.30,0.00,17.27,20.69,23.77,14.27,47.48,1021.24,2052.98,2351.64,2358.39,2665.96,600.00,610.61,60.01,0000 0000 0000 0000 000000
2017-11-04 11:52:31,0.03,3.30,0.00,17.29,20.70,23.74,14.30,47.51,1021.09,2052.98,2350.99,2357.99,2665.14,599.96,610.51,60.06,0000 0000 0000 0000 000000
2017-11-04 11:57:33,0.05,3.31,0.00,17.31,20.70,23.75,14.29,47.42,1021.03,2052.99,2350.21,2357.51,2665.00,600.09,610.49,60.11,0000 0000 0000 0000 000000
2017-11-04 12:02:34,0.02,0.77,0.00,17.30,20.73,23.77,12.87,40.44,1021.02,2054.79,3369.68,2979.85,3406.65,533.52,538.91,0.00,0000 0000 0000 0000 000000
2017-11-04 12:07:35,0.02,0.00,0.00,17.31,20.72,23.78,14.27,46.11,1021.01,2055.18,3621.53,3134.99,3591.93,600.12,610.46,0.05,0000 0000 0000 0000 000000
2017-11-04 12:12:36,0.02,0.00,0.00,17.32,20.72,23.75,14.23,46.11,1021.01,2055.16,3620.15,3134.24,3591.10,599.91,610.23,0.10,0000 0000 0000 0000 000000
2017-11-04 12:17:38,0.03,0.00,0.00,17.32,20.72,23.76,14.31,46.14,1021.01,2055.27,3619.01,3133.93,3590.43,600.34,610.65,0.15,0000 0000 0000 0000 000000
2017-11-04 12:22:39,0.03,0.00,0.00,17.34,20.72,23.73,14.29,46.00,1021.01,2055.15,3617.93,3133.08,3589.68,600.09,610.24,0.20,0000 0000 0000 0000 000000
2017-11-04 12:27:40,0.03,0.00,0.00,17.33,20.72,23.77,14.30,45.98,1021.01,2055.11,3616.82,3132.60,3588.96,600.17,610.47,0.25,0000 0000 0000 0000 000000
2017-11-04 12:32:42,0.03,0.01,0.00,17.32,20.72,23.75,14.33,45.93,1021.01,2055.07,3615.92,3132.01,3588.16,600.31,610.72,0.30,0000 0000 0000 0000 000000
2017-11-04 12:37:43,0.04,0.01,0.00,17.34,20.72,23.76,14.18,45.88,1020.99,2055.14,3615.01,3131.64,3587.64,599.94,610.08,0.35,0000 0000 0000 0000 000000
2017-11-04 12:42:44,0.02,0.01,0.00,17.36,20.72,23.74,14.25,45.92,1020.97,2055.07,3614.06,3131.02,3586.99,599.80,610.06,0.40,0000 0000 0000 0000 000000
2017-11-04 12:47:46,0.05,0.01,0.00,17.38,20.72,23.75,14.26,45.94,1020.87,2055.10,3613.20,3130.58,3586.32,599.80,609.93,0.45,0000 0000 0000 0000 000000
2017-11-04 12:52:47,0.02,0.01,0.00,17.37,20.73,23.76,14.31,46.02,1020.79,2055.12,3612.37,3130.01,3585.87,600.24,610.33,0.50,0000 0000 0000 0000 000000
2017-11-04 12:57:48,0.07,0.01,0.00,17.37,20.73,23.79,14.30,46.04,1020.72,2055.33,3611.71,3129.72,3585.08,600.04,610.10,0.55,0000 0000 0000 0000 000000